NOAA NWS Hourly Roundups by Site

Regional Weather Roundup for Topeka, KS

To Select Another Site Choose from List

Select Site:  

000
ASUS43 KTOP 200108
RWRKS

WEATHER ROUNDUP FOR KANSAS
NATIONAL WEATHER SERVICE GOODLAND KS
800 PM CDT WED JUN 19 2019

NOTE:  "FAIR" INDICATES FEW OR NO CLOUDS BELOW 12,000 FEET WITH NO
SIGNIFICANT WEATHER AND/OR OBSTRUCTIONS TO VISIBILITY.

KSZ001>006-013>018-027>032-041>047-200200-
NORTHWEST KANSAS

CITY           SKY/WX    TMP DP  RH WIND       PRES   REMARKS
GOODLAND       CLOUDY    76  54  46 E6        29.78F
HAYS           SUNNY     75  63  66 S6        29.75S
HILL CITY      SUNNY     76  64  66 SE6       29.75F
RUSSELL        SUNNY     75  61  61 S3        29.74R
$$

KSZ061>065-074>080-084>089-200200-
SOUTHWEST KANSAS

CITY           SKY/WX    TMP DP  RH WIND       PRES   REMARKS
DODGE CITY     SUNNY     70  62  76 SE5       29.78F
ELKHART        SUNNY     84  54  35 CALM      29.82S
GARDEN CITY    SUNNY     75  62  64 E8        29.78S
GREAT BEND     SUNNY     74  65  73 SE3       29.76S
LIBERAL        SUNNY     83  59  44 N5        29.79F
PRATT          CLEAR     70  67  89 SW7       29.76R
$$

KSZ066>073-081>083-090>101-200200-
SOUTHEAST KANSAS

CITY           SKY/WX    TMP DP  RH WIND       PRES   REMARKS
CHANUTE        CLEAR     78  64  61 NW6       29.72S
COFFEYVILLE    PTCLDY    79  65  62 W5        29.69F
HUTCHINSON     PTCLDY    73  66  78 NE3       29.73R
MEDICINE LODGE   N/A     71  66  84 NE3       29.74F
NEWTON         CLEAR     74  63  68 W3        29.75R
PARSONS        PTCLDY    78  66  66 NW6       29.72F
WICHITA INTL   PTCLDY    76  64  66 E3        29.71F
WICHITA JABRA  CLEAR     74  62  66 NW3       29.73F
WICHITA MCCONL CLEAR     76  62  60 CALM      29.73F
WINFIELD       CLEAR     76  64  66 CALM      29.75S
$$

KSZ007>012-019>026-033>040-048>060-102>105-200200-
NORTHEAST KANSAS

CITY           SKY/WX    TMP DP  RH WIND       PRES   REMARKS
CONCORDIA      CLEAR     77  61  57 CALM      29.73S
EMPORIA        CLEAR     74  64  71 NW3       29.72S
LAWRENCE       CLOUDY    74  64  71 N5        29.71S
MANHATTAN      CLOUDY    75  64  68 CALM      29.72R
MARYSVILLE     PTCLDY    72  63  73 CALM      29.73R
OLATHE IND     MOCLDY    73  62  68 NW8       29.72S
OLATHE EXE     MOCLDY    74  63  68 N9        29.71S
SALINA         CLEAR     75  62  64 W3        29.73S
TOPEKA BILLARD MOCLDY    74  62  66 CALM      29.71S
TOPEKA FORBES  PTCLDY    74  63  68 NE5       29.72S
$$



 

View Past Reports for Topeka, KS.

Products Courtesy of NOAA-NWS
NWS Information Parsing Script by Ken True at Saratoga Weather - Script by SE Lincoln Weather.